VK4NB-13 Weather Reports


time (UTC)temp
F
wind
direction
speed
knots
gust
knots
rain 1hr
in
rain 24hr
in
rain mn
in
humidity
%
barometer
mb
20260510011501 78 0 0.0 0.0 0.00 0.00 0.00 70 1022.8
20260510011001 79 0 0.0 0.0 0.00 0.00 0.00 71 1022.7
20260510010501 78 0 0.0 0.0 0.00 0.00 0.00 72 1022.9
20260510010022 78 135 0.0 1.7 0.00 0.00 0.00 72 1023.0
20260510005501 77 135 0.0 1.7 0.00 0.00 0.00 73 1022.9
20260510005001 77 0 0.0 0.0 0.00 0.00 0.00 73 1023.1
20260510004522 78 0 0.0 0.0 0.00 0.00 0.00 72 1023.1
20260510004001 79 0 0.0 0.0 0.00 0.00 0.00 72 1023.2
20260510003501 77 112 0.0 1.7 0.00 0.00 0.00 74 1023.3
20260510003002 76 112 0.0 1.7 0.00 0.00 0.00 76 1023.3
20260510002501 76 0 0.0 0.0 0.00 0.00 0.00 76 1023.3
20260510002001 77 0 0.0 0.0 0.00 0.00 0.00 74 1023.3
20260510001501 77 0 0.0 0.0 0.00 0.00 0.00 75 1023.6
20260510001001 76 0 0.0 0.0 0.00 0.00 0.00 75 1023.4
20260510000501 77 0 0.0 0.0 0.00 0.00 0.00 76 1023.2
20260510000001 76 112 0.0 1.7 0.00 0.00 0.00 76 1023.5
20260509235501 75 112 0.0 1.7 0.00 0.00 0.00 77 1023.4
20260509235001 76 74 0.0 1.7 0.00 0.00 0.00 75 1023.4
20260509234501 77 93 0.0 1.7 0.00 0.00 0.00 76 1023.4
20260509234022 76 118 0.0 1.7 0.00 0.00 0.00 77 1023.5
20260509233501 76 135 0.0 1.7 0.00 0.00 0.00 76 1023.4
20260509233002 75 72 0.0 1.7 0.00 0.00 0.00 77 1023.5
20260509232522 76 79 0.0 1.7 0.00 0.00 0.00 76 1023.3
20260509232001 75 90 0.0 1.7 0.00 0.00 0.00 78 1023.1
20260509231522 75 0 0.0 0.0 0.00 0.00 0.00 77 1023.1
20260509231001 74 0 0.0 0.0 0.00 0.00 0.00 78 1023.1
20260509230522 74 90 0.0 1.7 0.00 0.00 0.00 78 1022.9
20260509230001 74 90 0.0 1.7 0.00 0.00 0.00 79 1022.9
20260509225501 74 157 0.0 1.7 0.00 0.00 0.00 79 1022.8
20260509225001 74 157 0.0 1.7 0.00 0.00 0.00 79 1022.9
20260509224501 73 157 0.0 1.7 0.00 0.00 0.00 79 1023.0
20260509224001 74 157 0.0 1.7 0.00 0.00 0.00 79 1022.9
20260509223501 74 157 0.0 1.7 0.00 0.00 0.00 80 1022.9
20260509223002 73 0 0.0 0.0 0.00 0.00 0.00 79 1022.8
20260509222522 73 0 0.0 0.0 0.00 0.00 0.00 79 1022.6
20260509222022 73 0 0.0 0.0 0.00 0.00 0.00 78 1022.6
20260509221501 73 0 0.0 0.0 0.00 0.00 0.00 79 1022.5
20260509221001 72 0 0.0 0.0 0.00 0.00 0.00 80 1022.5
20260509220501 72 0 0.0 0.0 0.00 0.00 0.00 80 1022.7
20260509220001 72 0 0.0 0.0 0.00 0.00 0.00 81 1022.6
20260509215501 72 0 0.0 0.0 0.00 0.00 0.00 81 1022.5
20260509215001 71 0 0.0 0.0 0.00 0.00 0.00 82 1022.5
20260509214501 71 0 0.0 0.0 0.00 0.00 0.00 82 1022.0
20260509214001 72 0 0.0 0.0 0.00 0.00 0.00 83 1022.4
20260509213522 71 0 0.0 0.0 0.00 0.00 0.00 82 1022.2
20260509213002 70 102 0.0 1.7 0.00 0.00 0.00 84 1021.9
20260509212501 70 101 0.0 1.7 0.00 0.00 0.00 83 1021.8
20260509212001 70 117 0.0 1.7 0.00 0.00 0.00 84 1022.0
20260509211501 70 135 0.0 1.7 0.00 0.00 0.00 85 1021.7
20260509211001 69 112 0.0 1.7 0.00 0.00 0.00 85 1021.8
20260509210501 69 112 0.0 1.7 0.00 0.00 0.00 86 1021.8
20260509210022 69 0 0.0 0.0 0.00 0.00 0.00 87 1021.6
20260509205522 68 0 0.0 0.0 0.00 0.00 0.00 88 1021.7
20260509205001 68 0 0.0 0.0 0.00 0.00 0.00 89 1021.7
20260509204501 68 0 0.0 0.0 0.00 0.00 0.00 89 1021.4
20260509204001 67 0 0.0 0.0 0.00 0.00 0.00 89 1021.5
20260509203501 67 0 0.0 0.0 0.00 0.00 0.00 89 1021.6
20260509203023 67 0 0.0 0.0 0.00 0.00 0.00 90 1021.6
20260509202501 67 180 0.0 1.7 0.00 0.00 0.00 90 1021.4
20260509202001 67 145 0.0 1.7 0.00 0.00 0.00 90 1021.5
20260509201501 67 123 0.0 1.7 0.00 0.00 0.00 90 1021.2
20260509201001 67 157 0.0 1.7 0.00 0.00 0.00 90 1020.9
20260509200501 67 158 0.0 1.7 0.00 0.00 0.00 90 1020.9
20260509200022 67 0 0.0 0.0 0.00 0.00 0.00 90 1021.1
20260509195501 67 0 0.0 0.0 0.00 0.00 0.00 90 1020.9
20260509195001 67 0 0.0 0.0 0.00 0.00 0.00 90 1020.8
20260509194501 67 0 0.0 0.0 0.00 0.00 0.00 90 1020.8
20260509194001 67 0 0.0 0.0 0.00 0.00 0.00 90 1020.8
20260509193501 67 0 0.0 0.0 0.00 0.00 0.00 90 1020.7
20260509193002 67 0 0.0 0.0 0.00 0.00 0.00 91 1020.7
20260509192501 67 0 0.0 0.0 0.00 0.00 0.00 91 1020.9
20260509192001 67 0 0.0 0.0 0.00 0.00 0.00 91 1020.7
20260509191501 67 0 0.0 0.0 0.00 0.00 0.00 91 1020.9
20260509191001 67 0 0.0 0.0 0.00 0.00 0.00 91 1020.8
20260509190501 67 0 0.0 0.0 0.00 0.00 0.00 91 1020.7
20260509190002 67 0 0.0 0.0 0.00 0.00 0.00 91 1020.5
20260509185501 66 0 0.0 0.0 0.00 0.00 0.00 91 1020.7
20260509185001 66 0 0.0 0.0 0.00 0.00 0.00 91 1020.4
20260509184523 67 0 0.0 0.0 0.00 0.00 0.00 91 1020.6
20260509184002 66 180 0.0 1.7 0.00 0.00 0.00 91 1020.6
20260509183501 67 180 0.0 1.7 0.00 0.00 0.00 90 1020.3
20260509183002 67 0 0.0 0.0 0.00 0.00 0.00 90 1020.3
20260509182502 67 0 0.0 0.0 0.00 0.00 0.00 91 1020.5
20260509182022 67 0 0.0 0.0 0.00 0.00 0.00 90 1020.2
20260509181501 67 0 0.0 0.0 0.00 0.00 0.00 90 1020.3
20260509181002 67 0 0.0 0.0 0.00 0.00 0.00 90 1020.1
20260509180502 67 0 0.0 0.0 0.00 0.00 0.00 91 1020.0
20260509180022 66 0 0.0 0.0 0.00 0.00 0.00 93 1020.3
20260509175502 66 0 0.0 0.0 0.00 0.00 0.00 93 1020.2
20260509175023 66 0 0.0 0.0 0.00 0.00 0.00 93 1020.1
20260509174502 67 0 0.0 0.0 0.00 0.00 0.00 92 1020.1
20260509174002 67 0 0.0 0.0 0.00 0.00 0.00 92 1020.2
20260509173501 67 0 0.0 0.0 0.00 0.00 0.00 92 1020.2
20260509173003 67 0 0.0 0.0 0.00 0.00 0.00 91 1020.0
20260509172502 67 0 0.0 0.0 0.00 0.00 0.00 92 1020.1
20260509172002 67 0 0.0 0.0 0.00 0.00 0.00 92 1020.1
20260509171501 67 0 0.0 0.0 0.00 0.00 0.00 92 1020.3
20260509171023 67 0 0.0 0.0 0.00 0.00 0.00 93 1020.2
20260509170502 67 67 0.0 1.7 0.00 0.00 0.00 92 1020.3
20260509170023 67 67 0.0 1.7 0.00 0.00 0.00 93 1020.2
20260509165502 67 0 0.0 0.0 0.00 0.00 0.00 92 1020.2
20260509165002 67 0 0.0 0.0 0.00 0.00 0.00 93 1020.2
20260509164502 67 0 0.0 0.0 0.00 0.00 0.00 93 1020.3
20260509164002 67 0 0.0 0.0 0.00 0.00 0.00 94 1020.3
20260509163501 66 0 0.0 0.0 0.00 0.00 0.00 95 1020.6
20260509163003 66 0 0.0 0.0 0.00 0.00 0.00 94 1020.4
20260509162502 66 0 0.0 0.0 0.00 0.00 0.00 95 1020.4
20260509162023 66 0 0.0 0.0 0.00 0.00 0.00 94 1020.4
20260509161502 66 0 0.0 0.0 0.00 0.00 0.00 94 1020.5
20260509161002 67 0 0.0 0.0 0.00 0.00 0.00 94 1020.6
20260509160502 67 0 0.0 0.0 0.00 0.00 0.00 94 1020.6
20260509160002 66 0 0.0 0.0 0.00 0.00 0.00 94 1020.5
20260509155502 66 0 0.0 0.0 0.00 0.00 0.00 94 1020.9
20260509155002 66 0 0.0 0.0 0.00 0.00 0.00 94 1020.9
20260509154502 66 0 0.0 0.0 0.00 0.00 0.00 95 1021.0
20260509154002 66 0 0.0 0.0 0.00 0.00 0.00 94 1020.9
20260509153503 66 0 0.0 0.0 0.00 0.00 0.00 93 1020.8
20260509153003 67 0 0.0 0.0 0.00 0.00 0.00 93 1020.9
20260509152523 67 0 0.0 0.0 0.00 0.00 0.00 93 1020.7
20260509152002 67 0 0.0 0.0 0.00 0.00 0.00 93 1020.8
20260509151502 67 0 0.0 0.0 0.00 0.00 0.00 93 1020.9
20260509151002 67 0 0.0 0.0 0.00 0.00 0.00 93 1020.9
20260509150502 67 0 0.0 0.0 0.00 0.00 0.00 93 1020.8
20260509150002 67 0 0.0 0.0 0.00 0.00 0.00 93 1020.7
20260509145502 67 0 0.0 0.0 0.00 0.00 0.00 93 1020.9
20260509145002 67 0 0.0 0.0 0.00 0.00 0.00 93 1020.8
20260509144502 67 0 0.0 0.0 0.00 0.00 0.00 92 1021.2
20260509144002 67 0 0.0 0.0 0.00 0.00 0.00 92 1021.2
20260509143502 67 0 0.0 0.0 0.00 0.00 0.00 92 1021.0
20260509143003 67 0 0.0 0.0 0.00 0.00 0.00 93 1021.4
20260509142523 67 0 0.0 0.0 0.00 0.00 0.00 93 1021.1
20260509142023 67 0 0.0 0.0 0.00 0.00 0.00 93 1021.2
20260509141523 67 0 0.0 0.0 0.00 0.00 0.00 92 1021.3
20260509141002 67 0 0.0 0.0 0.00 0.00 0.00 93 1021.2
20260509140502 67 0 0.0 0.0 0.00 0.00 0.00 93 1021.2
20260509140002 67 0 0.0 0.0 0.00 0.00 0.00 93 1021.5
20260509135502 67 0 0.0 0.0 0.00 0.00 0.00 93 1021.3
20260509135002 67 157 0.0 1.7 0.00 0.00 0.00 92 1021.2
20260509134502 67 157 0.0 1.7 0.00 0.00 0.00 93 1021.2
20260509134002 67 0 0.0 0.0 0.00 0.00 0.00 93 1021.3
20260509133502 67 0 0.0 0.0 0.00 0.00 0.00 92 1021.5
20260509133004 67 0 0.0 0.0 0.00 0.00 0.00 93 1021.6
20260509132502 66 0 0.0 0.0 0.00 0.00 0.00 93 1021.4
20260509132002 67 0 0.0 0.0 0.00 0.00 0.00 92 1021.4
20260509131502 67 0 0.0 0.0 0.00 0.00 0.00 91 1021.5
20260509131002 67 0 0.0 0.0 0.00 0.00 0.00 92 1021.7
20260509130502 67 0 0.0 0.0 0.00 0.00 0.00 91 1021.7
20260509130002 67 0 0.0 0.0 0.00 0.00 0.00 92 1021.9
20260509125502 67 0 0.0 0.0 0.00 0.00 0.00 91 1021.8
20260509125002 67 0 0.0 0.0 0.00 0.00 0.00 91 1021.9
20260509124502 66 0 0.0 0.0 0.00 0.00 0.00 91 1021.8
20260509124002 67 0 0.0 0.0 0.00 0.00 0.00 90 1021.7
20260509123502 67 0 0.0 0.0 0.00 0.00 0.00 91 1021.9
20260509123003 67 0 0.0 0.0 0.00 0.00 0.00 89 1021.8
20260509122502 67 0 0.0 0.0 0.00 0.00 0.00 88 1021.8
20260509122002 68 0 0.0 0.0 0.00 0.00 0.00 88 1021.8
20260509121502 68 0 0.0 0.0 0.00 0.00 0.00 88 1021.9
20260509121002 68 0 0.0 0.0 0.00 0.00 0.00 87 1022.0
20260509120502 68 0 0.0 0.0 0.00 0.00 0.00 87 1021.9
20260509120023 67 0 0.0 0.0 0.00 0.00 0.00 87 1021.9
20260509115502 68 0 0.0 0.0 0.00 0.00 0.00 87 1022.0
20260509115002 67 0 0.0 0.0 0.00 0.00 0.00 87 1022.0
20260509114503 67 0 0.0 0.0 0.00 0.00 0.00 87 1022.1
20260509114002 67 0 0.0 0.0 0.00 0.00 0.00 86 1021.9
20260509113502 67 0 0.0 0.0 0.00 0.00 0.00 86 1022.0
20260509113003 67 0 0.0 0.0 0.00 0.00 0.00 86 1022.0
20260509112503 67 0 0.0 0.0 0.00 0.00 0.00 85 1022.0
20260509112024 67 0 0.0 0.0 0.00 0.00 0.00 85 1021.9
20260509111502 67 0 0.0 0.0 0.00 0.00 0.00 83 1022.0
20260509111002 68 0 0.0 0.0 0.00 0.00 0.00 82 1022.0
20260509110502 68 0 0.0 0.0 0.00 0.00 0.00 81 1021.9
20260509110002 67 0 0.0 0.0 0.00 0.00 0.00 82 1022.0
20260509105502 66 0 0.0 0.0 0.00 0.00 0.00 82 1021.9
20260509105002 65 0 0.0 0.0 0.00 0.00 0.00 83 1022.0
20260509104502 64 0 0.0 0.0 0.00 0.00 0.00 81 1022.3
20260509104003 64 0 0.0 0.0 0.00 0.00 0.00 82 1021.9
20260509103502 64 0 0.0 0.0 0.00 0.00 0.00 82 1022.0
20260509103003 64 0 0.0 0.0 0.00 0.00 0.00 83 1021.7
20260509102523 64 0 0.0 0.0 0.00 0.00 0.00 83 1022.0
20260509102002 64 0 0.0 0.0 0.00 0.00 0.00 84 1021.9
20260509101503 64 0 0.0 0.0 0.00 0.00 0.00 84 1021.9
20260509101002 64 0 0.0 0.0 0.00 0.00 0.00 84 1021.9
20260509100524 64 0 0.0 0.0 0.00 0.00 0.00 84 1021.8
20260509100003 65 0 0.0 0.0 0.00 0.00 0.00 84 1021.9
20260509095502 65 0 0.0 0.0 0.00 0.00 0.00 84 1022.1
20260509095002 65 0 0.0 0.0 0.00 0.00 0.00 83 1021.7
20260509094503 65 0 0.0 0.0 0.00 0.00 0.00 83 1021.6
20260509094023 65 0 0.0 0.0 0.00 0.00 0.00 81 1021.7
20260509093502 66 0 0.0 0.0 0.00 0.00 0.00 81 1021.5
20260509093003 66 0 0.0 0.0 0.00 0.00 0.00 81 1021.4
20260509092503 66 0 0.0 0.0 0.00 0.00 0.00 80 1021.3
20260509092002 66 0 0.0 0.0 0.00 0.00 0.00 80 1021.3
20260509091523 66 0 0.0 0.0 0.00 0.00 0.00 80 1021.3
20260509091003 66 0 0.0 0.0 0.00 0.00 0.00 79 1021.3
20260509090503 66 0 0.0 0.0 0.00 0.00 0.00 79 1021.2
20260509090003 66 0 0.0 0.0 0.00 0.00 0.00 78 1020.8
20260509085503 67 0 0.0 0.0 0.00 0.00 0.00 78 1021.0
20260509085024 67 0 0.0 0.0 0.00 0.00 0.00 77 1021.0
20260509084503 67 0 0.0 0.0 0.00 0.00 0.00 77 1020.9
20260509084003 67 0 0.0 0.0 0.00 0.00 0.00 77 1020.8
20260509083503 66 0 0.0 0.0 0.00 0.00 0.00 77 1020.6
20260509083004 67 0 0.0 0.0 0.00 0.00 0.00 76 1020.6
20260509082503 67 0 0.0 0.0 0.00 0.00 0.00 76 1020.5
20260509082024 67 0 0.0 0.0 0.00 0.00 0.00 76 1020.6
20260509081503 67 0 0.0 0.0 0.00 0.00 0.00 74 1020.4
20260509081024 67 0 0.0 0.0 0.00 0.00 0.00 74 1020.3
20260509080524 67 0 0.0 0.0 0.00 0.04 0.00 74 1020.3
20260509080003 68 0 0.0 0.0 0.00 0.07 0.00 73 1020.2
20260509075503 67 0 0.0 0.0 0.00 0.07 0.00 73 1020.2
20260509075003 68 0 0.0 0.0 0.00 0.07 0.00 72 1020.0
20260509074503 68 0 0.0 0.0 0.00 0.07 0.00 71 1020.1
20260509074003 68 0 0.0 0.0 0.00 0.07 0.00 71 1020.1
20260509073503 69 0 0.0 0.0 0.00 0.07 0.00 70 1020.0
20260509073025 69 0 0.0 0.0 0.00 0.07 0.00 69 1020.1
20260509072503 70 0 0.0 0.0 0.00 0.07 0.00 67 1020.0
20260509072003 70 0 0.0 0.0 0.00 0.07 0.00 65 1019.9
20260509071503 71 0 0.0 0.0 0.00 0.07 0.00 64 1020.0
20260509071003 71 0 0.0 0.0 0.00 0.07 0.00 63 1019.8
20260509070503 71 0 0.0 0.0 0.00 0.07 0.00 62 1019.7
20260509070003 72 0 0.0 0.0 0.00 0.07 0.00 61 1019.7
20260509065503 72 0 0.0 0.0 0.00 0.07 0.00 60 1019.6
20260509065003 73 0 0.0 0.0 0.00 0.07 0.00 59 1019.6
20260509064503 73 0 0.0 0.0 0.00 0.07 0.00 56 1019.6
20260509064003 74 0 0.0 0.0 0.00 0.07 0.00 56 1019.4
20260509063504 73 0 0.0 0.0 0.00 0.07 0.00 56 1019.4
20260509063004 74 0 0.0 0.0 0.00 0.07 0.00 56 1019.2
20260509062503 74 0 0.0 0.0 0.00 0.07 0.00 55 1019.2
20260509062024 74 0 0.0 0.0 0.00 0.07 0.00 54 1019.4
20260509061503 75 112 0.0 1.7 0.00 0.07 0.00 53 1019.3
20260509061024 75 112 0.0 1.7 0.00 0.07 0.00 52 1019.1
20260509060503 75 0 0.0 0.0 0.00 0.07 0.00 52 1019.2
20260509060024 75 0 0.0 0.0 0.00 0.07 0.00 49 1019.1
20260509055503 76 0 0.0 0.0 0.00 0.07 0.00 46 1018.9
20260509055024 76 0 0.0 0.0 0.00 0.07 0.00 44 1018.8
20260509054503 76 0 0.0 0.0 0.00 0.07 0.00 42 1019.0
20260509054003 76 0 0.0 0.0 0.00 0.07 0.00 44 1018.9
20260509053504 76 0 0.0 0.0 0.00 0.07 0.00 43 1019.0
20260509053004 76 0 0.0 0.0 0.00 0.07 0.00 42 1018.8
20260509052503 75 0 0.0 0.0 0.00 0.07 0.00 38 1018.7
20260509052003 76 0 0.0 0.0 0.00 0.07 0.00 39 1018.6
20260509051503 76 0 0.0 0.0 0.00 0.07 0.00 42 1018.6
20260509051024 77 0 0.0 0.0 0.00 0.07 0.00 41 1018.5
20260509050503 77 0 0.0 0.0 0.00 0.07 0.00 40 1018.5
20260509050003 76 0 0.0 0.0 0.00 0.07 0.00 38 1018.7
20260509045503 76 0 0.0 0.0 0.00 0.07 0.00 39 1018.5
20260509045003 76 0 0.0 0.0 0.00 0.07 0.00 37 1018.5
20260509044503 77 0 0.0 0.0 0.00 0.07 0.00 38 1018.6
20260509044003 76 0 0.0 0.0 0.00 0.07 0.00 37 1018.4
20260509043504 77 0 0.0 0.0 0.00 0.07 0.00 35 1018.8
20260509043004 77 0 0.0 0.0 0.00 0.07 0.00 33 1018.6
20260509042503 77 0 0.0 0.0 0.00 0.07 0.00 34 1018.6
20260509042024 78 0 0.0 0.0 0.00 0.07 0.00 32 1018.5
20260509041503 77 0 0.0 0.0 0.00 0.07 0.00 34 1018.4
20260509041003 76 0 0.0 0.0 0.00 0.07 0.00 31 1018.7
20260509040524 76 0 0.0 0.0 0.00 0.07 0.00 32 1018.9
20260509040003 77 0 0.0 0.0 0.00 0.07 0.00 34 1018.6
20260509035503 76 0 0.0 0.0 0.00 0.07 0.00 34 1018.7
20260509035003 78 0 0.0 0.0 0.00 0.07 0.00 38 1018.9
20260509034503 77 0 0.0 0.0 0.00 0.07 0.00 34 1018.9
20260509034024 76 135 0.0 1.7 0.00 0.07 0.00 35 1018.9
20260509033504 77 135 0.0 1.7 0.00 0.07 0.00 36 1019.1
20260509033004 76 0 0.0 0.0 0.00 0.07 0.00 35 1019.3
20260509032503 76 0 0.0 0.0 0.00 0.07 0.00 37 1019.0
20260509032024 76 0 0.0 0.0 0.00 0.07 0.00 38 1019.0
20260509031503 77 0 0.0 0.0 0.00 0.07 0.00 39 1019.1
20260509031003 78 0 0.0 0.0 0.00 0.07 0.00 37 1019.2
20260509030503 76 0 0.0 0.0 0.00 0.07 0.00 37 1019.2
20260509030024 76 0 0.0 0.0 0.00 0.07 0.00 37 1019.3
20260509025503 76 135 0.0 1.7 0.00 0.07 0.00 38 1019.3
20260509025004 76 108 0.0 1.7 0.00 0.07 0.00 38 1019.4
20260509024503 75 67 0.0 1.7 0.00 0.07 0.00 38 1019.5
20260509024003 76 0 0.0 0.0 0.00 0.07 0.00 37 1019.3
20260509023504 76 0 0.0 0.0 0.00 0.07 0.00 37 1019.5
20260509023004 76 0 0.0 0.0 0.00 0.07 0.00 37 1019.6
20260509022503 76 0 0.0 0.0 0.00 0.07 0.00 40 1019.5
20260509022004 75 0 0.0 0.0 0.00 0.07 0.00 38 1019.8
20260509021503 75 0 0.0 0.0 0.00 0.07 0.00 41 1019.8
20260509021000 76 0 0.0 0.0 0.00 0.07 0.00 37 1019.8
20260509020500 76 0 0.0 0.0 0.00 0.07 0.00 37 1020.1
20260509020000 76 0 0.0 0.0 0.00 0.07 0.00 36 1020.0
20260509015522 76 0 0.0 0.0 0.00 0.07 0.00 38 1020.3
20260509015001 76 135 0.0 1.7 0.00 0.07 0.00 39 1020.0
20260509014522 76 135 0.0 1.7 0.00 0.07 0.00 38 1020.4
20260509014000 76 0 0.0 0.0 0.00 0.07 0.00 38 1020.1
20260509013501 75 0 0.0 0.0 0.00 0.07 0.00 39 1020.4
20260509013001 76 0 0.0 0.0 0.00 0.07 0.00 40 1020.5
20260509012521 74 0 0.0 0.0 0.00 0.07 0.00 38 1020.5
20260509012000 76 0 0.0 0.0 0.00 0.07 0.00 38 1020.5